Location: ??????
(41.3747°N, 22.5491°E)
Time: 04:35:44
(UTC+00:00)

Cosmos 1943 Rocket - Pass Details

Date: 01 December 2020
Orbit: 811 x 844 km, 71.0° (Epoch: 20 January)

Event Time Altitude Azimuth Distance (km) Brightness Sun altitude
Rises 16:11:33 0° 335° (NNW) 3,359 5.4 -12.9°
Reaches altitude 10° 16:13:59 10° 335° (NNW) 2,428 4.7 -13.4°
Maximum altitude 16:19:33 85° 248° (WSW) 836 2.2 -14.4°
Drops below altitude 10° 16:25:09 10° 160° (SSE) 2,435 4.6 -15.4°
Sets 16:27:35 0° 160° (SSE) 3,369 5.3 -15.8°
